This is the latest recevied weather packets stored in our database for station/object CA3NEB-13. If no packets are shown the sender has not sent any weather packets the latest 10 day(s).
| Time | Temp. | Humidity | Pressure | Rain* | Wind** | Luminosity | Snow |
|---|---|---|---|---|---|---|---|
| 1787636154 | 17.22° C | 65% | 1017.1 hPa | - | - | - | - |
| 1787635553 | 17.22° C | 65% | 1017.3 hPa | - | - | - | - |
| 1787634954 | 17.22° C | 65% | 1017 hPa | - | - | - | - |
| 1787634353 | 17.22° C | 65% | 1017 hPa | - | - | - | - |
| 1787633754 | 17.22° C | 65% | 1017 hPa | - | - | - | - |
| 1787633153 | 17.22° C | 65% | 1016.8 hPa | - | - | - | - |
| 1787632553 | 17.22° C | 65% | 1016.6 hPa | - | - | - | - |
| 1787631953 | 17.22° C | 65% | 1016 hPa | - | - | - | - |
| 1787631353 | 17.22° C | 65% | 1016.2 hPa | - | - | - | - |
| 1787630754 | 17.22° C | 65% | 1016.2 hPa | - | - | - | - |
| 1787630153 | 17.22° C | 65% | 1016.7 hPa | - | - | - | - |
| 1787629554 | 17.22° C | 66% | 1017.4 hPa | - | - | - | - |
| 1787628953 | 17.22° C | 66% | 1017.6 hPa | - | - | - | - |
| 1787628354 | 17.22° C | 66% | 1017.5 hPa | - | - | - | - |
| 1787627753 | 16.67° C | 67% | 1017.4 hPa | - | - | - | - |
| 1787627153 | 16.67° C | 67% | 1016.9 hPa | - | - | - | - |
| 1787626554 | 16.67° C | 68% | 1016.8 hPa | - | - | - | - |
| 1787625953 | 16.11° C | 69% | 1016.7 hPa | - | - | - | - |
| 1787625354 | 16.11° C | 69% | 1016.7 hPa | - | - | - | - |
| 1787624754 | 15.56° C | 70% | 1016.9 hPa | - | - | - | - |
| 1787624153 | 15° C | 69% | 1017.2 hPa | - | - | - | - |
| 1787623554 | 15° C | 69% | 1017.1 hPa | - | - | - | - |
| 1787622953 | 15° C | 69% | 1017.1 hPa | - | - | - | - |
| 1787622353 | 15.56° C | 68% | 1017.4 hPa | - | - | - | - |
| 1787621754 | 15.56° C | 67% | 1017.4 hPa | - | - | - | - |
* Rain since midnight (hover to see other rain measurements)
** Current wind speed in m/s (hover to see current wind gust speed)